Theta_e
355 354 351 350 349 350 353 356 356 356 356 355 354 353 353 351 352 352 349 345 341 342 344 345 346 347 350 351 351 352 352 352 351 351 352 351 351 351 351 352 351 352 353 352 351 351 352 353 353 353 353 352 350 348 344 342 342 344 347 348 350 350 351 351 349 349 350 349 348 347 347 347 348 347 347 348 349 349 349 349 349 350 351 351 351
355 353 351 348 347 350 354 356 356 357 355 355 353 352 351 351 352 349 344 341 342 343 345 346 346 348 350 351 351 351 352 352 352 352 353 353 352 352 352 352 352 352 353 352 352 352 352 353 353 353 352 352 351 349 346 342 342 343 345 346 349 350 351 351 351 350 350 349 347 347 345 346 345 344 344 345 347 349 349 348 348 351 352 352 352
353 353 353 350 350 353 355 357 357 357 355 354 352 352 351 352 350 343 341 342 343 345 346 346 347 348 349 350 351 351 351 351 352 352 352 353 353 353 352 352 352 351 352 352 351 352 352 352 352 352 352 352 351 350 348 345 343 344 344 343 346 348 349 349 350 350 348 347 346 346 344 344 343 342 343 344 346 349 350 349 349 352 353 352 352
355 353 353 353 352 354 355 357 356 357 356 354 352 352 353 350 344 340 342 343 344 346 346 346 347 349 349 351 350 351 351 351 352 352 352 352 353 352 353 352 352 351 351 351 351 351 351 352 352 351 352 352 352 350 348 347 346 346 345 344 344 346 348 348 348 349 349 349 348 348 347 347 346 344 345 346 347 348 349 350 350 352 351 351 351
356 355 354 353 352 354 356 357 356 356 355 353 352 353 353 346 340 341 343 344 345 346 345 346 348 349 350 350 351 351 351 351 351 351 351 350 351 351 352 352 351 351 351 351 351 351 351 352 352 351 351 352 351 350 349 347 348 348 346 344 343 343 345 346 347 349 351 349 349 349 348 348 348 347 347 347 348 347 348 350 350 351 351 351 351
357 356 355 354 353 355 356 356 355 355 354 353 353 354 351 341 340 343 342 344 345 345 345 347 348 349 350 351 350 351 350 350 350 351 350 350 351 351 352 352 351 352 351 352 351 351 351 350 351 352 351 351 351 350 349 348 347 347 346 344 342 341 340 342 346 349 349 348 348 348 347 348 348 348 349 349 348 348 348 349 350 349 350 351 350
356 356 355 355 354 354 356 355 355 353 352 353 354 353 347 341 342 343 342 345 344 345 347 347 348 349 349 349 349 349 349 349 349 349 350 350 351 351 351 352 352 352 351 352 352 351 350 350 351 353 352 351 352 351 350 348 347 347 346 344 342 340 336 338 346 350 348 347 348 347 346 347 349 349 349 349 349 349 348 348 349 349 349 350 350
354 355 355 356 356 354 354 354 353 352 351 354 354 350 343 341 342 342 343 345 344 345 347 347 348 348 347 347 348 348 348 348 348 348 348 349 350 350 351 351 351 351 351 352 352 352 351 351 351 352 352 351 351 351 350 348 347 347 347 345 343 339 338 340 347 350 348 347 348 347 346 346 348 350 349 348 348 348 347 347 348 349 350 349 349
353 354 354 356 355 352 353 354 354 352 353 354 353 348 343 342 342 342 343 344 345 347 347 347 347 347 346 346 347 348 348 348 348 348 348 349 350 350 350 349 349 350 350 350 351 351 352 351 352 352 352 352 351 350 350 349 348 348 348 348 344 339 341 346 348 349 348 349 349 348 346 347 349 350 349 348 348 348 347 348 348 348 348 348 349
354 354 353 356 353 351 353 354 354 354 355 353 350 346 343 342 341 341 342 344 346 348 348 346 346 346 345 346 347 348 348 348 349 349 349 350 350 350 350 349 350 349 349 348 349 350 351 351 352 352 352 351 351 351 352 351 350 349 349 349 345 340 345 348 348 350 349 349 349 348 346 347 351 350 349 348 348 349 349 348 348 348 347 348 348
352 354 354 356 352 350 352 353 354 354 353 351 348 344 342 342 342 342 343 346 347 348 347 345 344 344 344 345 346 347 349 349 349 350 350 350 350 349 349 351 351 351 350 348 347 346 348 351 351 351 351 351 351 351 352 352 351 351 350 348 343 341 347 348 348 350 349 348 348 349 348 348 350 349 348 348 347 348 348 347 348 347 346 346 346
351 354 355 354 349 348 351 351 353 353 351 349 346 343 343 342 342 344 345 347 347 348 347 345 344 343 344 344 344 346 348 350 350 350 349 348 348 348 350 352 351 351 352 351 349 347 346 347 349 350 349 350 351 351 352 352 351 351 350 348 343 342 346 347 346 350 350 348 347 348 349 349 349 347 347 348 347 347 347 348 349 347 346 345 344
351 354 353 352 350 348 350 353 354 351 348 346 344 344 343 343 344 346 346 347 347 348 347 345 344 343 343 343 342 344 347 348 350 349 347 346 346 347 349 351 351 351 351 351 351 349 347 346 346 348 349 349 350 350 352 352 350 351 349 347 344 343 346 347 347 348 350 349 347 347 349 349 346 345 347 347 347 348 348 348 349 348 347 346 344
351 353 352 352 351 349 351 353 352 348 345 344 344 345 344 345 345 346 346 346 347 347 346 345 344 343 343 343 342 343 347 347 348 347 345 344 344 345 345 347 348 349 349 349 350 350 350 349 347 348 349 350 351 350 350 351 351 349 348 346 344 346 349 349 347 346 348 349 349 349 350 349 345 345 346 346 346 348 348 347 348 348 347 347 346
351 351 352 353 352 350 352 351 348 345 344 344 345 345 344 344 345 346 345 346 347 346 346 345 344 343 343 344 343 343 344 344 344 345 346 346 345 345 343 342 343 345 346 346 347 347 349 351 350 350 350 351 351 351 350 350 350 349 347 345 344 349 351 350 348 346 347 348 349 350 351 348 343 344 345 345 345 346 348 347 348 348 346 346 346
351 350 353 353 352 352 352 350 348 346 344 345 346 345 344 345 346 346 345 346 346 345 345 344 344 342 343 344 343 341 341 340 343 347 350 351 350 349 346 344 342 342 341 341 342 342 346 349 350 350 350 350 350 350 349 349 349 348 346 345 345 348 351 349 349 346 346 347 347 348 350 347 344 345 344 345 345 345 346 346 347 346 345 346 346
350 350 352 352 353 353 352 352 350 347 346 345 346 345 346 346 346 346 346 346 345 345 345 344 343 343 343 345 343 342 340 339 343 346 349 351 351 352 352 348 345 342 339 340 341 342 344 347 349 349 349 349 349 348 348 348 348 347 345 344 345 347 349 350 349 347 346 346 346 348 350 347 346 345 345 345 345 345 345 346 346 345 345 346 347
351 350 351 352 353 352 353 353 351 350 348 347 347 346 346 346 346 347 347 346 345 345 345 344 343 343 343 344 344 341 340 338 340 343 344 347 348 348 352 353 349 345 341 341 344 346 346 347 348 348 349 347 346 346 347 346 347 346 346 344 344 346 349 350 348 348 347 345 346 349 349 347 346 346 346 346 346 346 344 345 346 345 344 344 345
351 351 351 351 351 351 353 353 353 353 351 351 349 346 346 347 347 347 346 345 345 344 344 344 343 344 343 343 342 340 339 337 338 341 340 345 351 348 346 349 348 347 345 343 347 349 349 349 348 347 348 347 345 346 346 346 346 345 345 344 345 348 349 349 350 349 347 346 346 347 346 346 347 347 346 346 346 346 344 345 346 345 345 343 343
352 352 352 351 352 351 352 353 353 353 352 351 351 348 346 346 346 347 347 345 345 345 345 344 343 343 344 342 341 343 345 341 341 344 342 344 349 346 341 344 345 346 345 343 347 350 351 350 349 348 348 348 346 345 345 345 344 344 345 346 349 350 349 349 350 349 346 346 347 343 342 346 346 346 347 346 346 346 345 345 345 345 343 342 343
354 353 353 352 351 352 351 352 353 352 351 350 352 351 346 344 346 346 344 344 346 346 344 343 343 344 343 342 343 351 354 349 350 351 348 347 343 338 339 341 342 344 343 343 346 348 349 349 349 348 348 350 350 347 346 344 343 344 346 348 349 350 349 350 350 348 347 348 348 339 339 345 346 346 347 346 346 346 346 346 345 345 341 340 340
355 354 354 353 351 352 352 351 352 353 351 350 352 352 346 346 349 347 345 345 345 344 346 347 348 348 347 346 349 355 355 352 355 354 353 354 345 336 338 340 340 342 341 342 344 346 347 347 347 346 346 351 353 351 349 345 343 346 348 349 349 349 351 350 348 347 349 351 348 338 337 344 347 347 347 346 347 347 348 347 347 346 342 339 339
354 355 355 354 353 353 352 350 352 352 351 351 351 352 348 349 353 351 349 349 348 347 350 353 354 354 352 352 352 352 354 355 356 353 352 353 346 337 338 340 339 340 343 345 345 347 347 347 348 347 349 349 350 351 350 348 347 347 348 347 346 349 351 350 348 347 349 352 348 340 336 341 346 347 347 348 347 348 348 348 347 346 345 342 339
354 356 355 355 355 354 353 350 351 352 352 351 351 352 350 350 352 352 351 352 351 351 353 354 356 357 356 355 353 352 354 355 352 347 347 351 349 344 344 345 343 342 349 352 350 349 349 350 350 350 351 349 349 349 348 349 347 347 346 344 344 345 347 348 348 346 349 351 346 341 336 338 344 346 348 348 347 348 348 348 347 346 346 344 343
353 354 355 355 355 355 354 351 352 352 351 352 350 351 350 348 350 352 351 351 352 352 353 354 356 358 358 355 354 353 352 353 350 346 347 351 353 352 351 352 351 348 352 354 352 351 351 351 351 351 349 348 349 349 348 347 344 343 342 342 342 343 343 344 346 347 350 350 344 341 339 337 341 345 347 346 346 346 347 347 347 347 346 346 347
353 353 355 354 355 355 354 352 352 352 352 352 350 351 350 347 349 351 351 351 352 352 352 354 356 357 356 354 353 353 351 353 352 351 351 350 352 354 353 353 354 352 351 352 351 351 350 349 352 353 349 348 350 350 349 347 343 342 341 341 342 341 342 341 345 346 348 348 343 343 341 339 340 342 345 345 345 346 346 346 346 347 346 345 346
353 354 354 354 354 355 354 354 353 352 353 352 350 351 350 348 349 351 350 351 353 353 353 354 355 356 354 354 353 352 350 352 352 351 352 351 352 353 353 353 354 352 351 351 351 350 350 349 352 353 350 348 350 350 350 348 344 343 341 342 341 341 341 340 343 344 347 348 344 343 343 342 341 341 343 344 344 345 346 345 345 347 347 346 345
353 354 354 355 354 354 354 355 354 353 353 353 351 352 351 349 350 352 351 352 353 353 353 354 355 355 354 354 354 352 351 352 352 351 351 351 353 354 354 353 352 352 352 352 351 349 349 349 351 353 351 350 351 350 349 348 346 344 342 341 340 340 340 341 341 342 345 346 344 342 343 343 342 343 342 343 345 345 346 345 345 346 346 347 345
352 353 354 355 354 354 354 354 355 354 353 353 352 351 351 349 352 353 353 353 353 352 353 355 355 354 354 355 354 353 351 351 352 351 352 353 354 355 354 353 353 353 353 352 351 350 349 351 354 354 352 351 352 351 349 348 347 343 342 341 340 338 339 340 340 340 342 345 344 341 341 343 343 343 343 343 344 345 346 345 346 346 346 346 345
351 353 354 354 355 354 354 354 354 355 353 353 352 352 351 351 355 355 354 354 353 353 353 353 354 353 354 355 355 354 353 352 351 352 353 355 355 355 354 354 353 353 353 352 351 351 351 352 354 354 352 351 350 353 351 349 347 345 342 341 339 336 337 339 339 339 339 343 346 341 339 342 343 343 344 344 344 345 346 346 346 346 346 346 345
350 351 351 354 355 353 354 354 354 355 352 353 353 353 352 352 356 356 355 354 352 353 354 353 353 352 354 356 355 355 355 353 353 353 354 355 355 355 355 354 354 353 353 352 351 352 352 354 354 352 352 351 350 352 352 349 347 344 344 342 339 337 336 337 338 339 338 341 346 344 340 340 342 344 344 345 345 345 346 346 346 347 346 347 346
350 349 351 353 355 354 354 355 354 355 353 353 354 354 354 354 355 356 355 354 352 353 353 352 353 352 355 356 355 355 355 356 357 355 355 355 355 355 355 355 355 354 353 353 353 353 353 354 356 355 354 354 352 352 353 351 347 345 344 342 341 337 335 337 337 337 336 338 344 346 345 342 340 342 343 345 345 345 346 346 346 347 347 347 346
350 350 350 352 354 354 355 355 355 355 355 354 355 355 355 355 356 355 355 355 354 353 353 353 352 352 355 355 356 355 355 357 358 356 355 355 356 357 355 355 355 353 355 357 355 353 353 352 355 356 354 353 352 352 352 350 347 345 344 343 341 337 335 336 336 336 336 338 341 345 347 347 344 342 342 343 344 345 345 345 346 346 346 347 347
351 350 350 351 351 354 354 355 355 355 356 355 355 355 355 355 355 354 354 356 355 353 352 353 353 353 355 355 356 356 355 357 358 356 354 354 356 357 357 355 355 356 357 358 355 352 353 353 353 354 354 352 351 352 353 351 348 346 345 344 341 338 336 335 335 336 336 339 340 342 346 349 348 345 342 340 341 342 344 345 347 348 347 347 347
351 351 351 350 350 352 352 353 355 355 356 355 354 355 355 353 354 353 353 356 355 352 353 352 353 353 354 355 356 356 356 356 357 357 355 355 356 357 357 356 358 358 357 358 357 354 354 353 353 354 355 353 352 353 354 352 349 347 345 344 342 339 337 335 336 336 335 338 340 342 345 347 348 348 346 343 341 339 340 343 346 348 348 347 347
352 352 352 352 350 350 350 351 354 356 356 356 355 355 355 353 353 353 353 355 354 353 352 351 351 352 351 354 355 357 357 356 357 357 356 355 355 356 356 357 359 357 357 360 357 355 355 355 355 354 355 355 353 353 354 353 350 347 346 344 341 340 337 335 336 337 337 338 340 342 345 346 346 346 348 347 346 342 338 340 344 346 347 346 347
353 353 352 353 351 350 350 352 352 355 356 357 356 355 355 354 353 352 353 354 353 352 352 351 350 350 350 352 356 357 357 357 356 357 356 354 354 357 355 357 359 358 360 361 357 355 355 355 358 357 355 356 354 353 353 352 349 346 346 344 341 340 337 336 338 339 338 340 341 342 343 345 346 346 346 348 349 346 341 340 341 342 345 345 345
353 353 353 353 353 352 352 351 352 354 355 356 356 356 355 355 354 352 353 354 354 351 350 351 350 350 350 350 355 357 357 358 356 356 356 354 354 356 356 357 359 360 362 361 357 356 355 355 358 359 357 356 354 354 354 350 348 346 346 344 343 341 337 336 338 339 339 340 341 341 341 342 344 343 343 345 348 348 345 344 343 343 344 343 343
353 353 353 354 353 352 353 352 352 353 354 356 356 355 354 354 354 353 353 354 353 351 350 351 350 350 350 351 356 358 357 357 356 356 357 354 354 354 357 360 360 361 362 359 357 357 357 358 357 358 360 358 355 356 355 350 347 346 345 344 344 342 339 338 338 339 340 340 341 341 340 340 341 340 341 342 344 346 346 346 347 348 346 343 342
353 354 354 355 355 354 355 353 353 353 354 355 355 354 353 353 354 353 352 353 353 353 352 351 351 350 350 352 357 358 357 357 356 356 356 355 354 354 358 362 361 361 362 360 357 357 360 361 360 360 362 360 357 357 355 349 346 346 345 344 344 343 341 338 338 339 340 340 341 340 339 339 339 339 339 339 341 343 344 345 346 348 348 345 341
354 356 355 357 356 355 356 355 354 354 353 353 354 353 353 353 353 352 352 352 352 353 353 352 352 351 351 353 357 358 357 356 356 356 357 356 355 357 361 363 361 360 362 362 360 360 362 362 361 361 361 360 358 356 353 348 346 346 344 343 343 342 341 339 338 338 339 339 340 340 339 339 339 338 337 337 338 340 342 343 342 344 345 345 343
355 357 357 358 358 357 357 357 356 356 354 353 353 353 353 352 353 352 351 352 352 353 354 354 353 352 353 354 357 357 357 357 357 356 357 357 357 359 363 366 363 361 362 364 363 363 365 362 361 361 360 358 357 354 351 348 347 345 343 341 341 341 339 337 338 337 338 339 339 339 338 338 339 338 337 336 337 338 339 340 341 342 342 343 344
356 357 358 359 359 357 358 358 357 357 356 354 354 354 353 353 352 352 353 352 353 354 353 353 353 350 352 356 358 357 357 356 357 356 356 359 362 363 364 364 365 362 363 366 365 365 366 364 362 359 357 357 355 352 351 349 346 342 343 344 340 340 339 337 338 337 337 337 338 338 338 339 339 337 337 336 336 337 338 340 342 343 343 342 342
357 358 359 359 359 359 358 359 358 357 358 356 354 355 354 354 354 354 354 352 351 354 354 353 353 351 351 356 359 358 357 356 357 356 356 359 364 364 363 363 365 365 364 367 367 366 365 363 362 358 355 356 353 352 351 347 345 341 341 343 339 340 341 338 339 337 337 336 336 337 338 339 338 337 337 336 334 336 338 341 344 344 344 343 341
357 357 359 359 359 359 359 359 359 359 359 357 356 356 356 356 356 356 355 353 352 353 355 353 354 353 351 355 359 359 357 355 356 357 356 360 363 364 362 363 364 366 367 365 365 364 361 361 361 358 356 355 352 351 351 347 346 345 344 341 339 342 342 338 339 338 337 335 334 337 338 338 338 339 339 336 335 337 338 340 343 343 343 342 341
358 358 358 359 360 360 360 360 360 360 359 358 357 358 358 358 358 358 356 355 354 353 355 354 353 355 351 351 357 360 358 355 355 357 357 359 365 364 362 363 364 366 367 364 363 363 361 360 360 358 356 355 353 352 350 346 345 345 345 343 343 345 343 337 339 339 338 337 335 336 337 338 339 339 339 337 335 336 337 339 341 342 342 341 340
358 359 358 358 360 360 361 361 361 360 359 359 359 359 359 359 359 358 358 357 356 356 358 357 354 354 353 349 353 358 358 356 354 357 357 359 366 365 362 362 362 363 366 366 364 361 360 360 360 357 355 355 354 352 347 345 346 344 343 343 343 343 341 339 341 340 340 341 338 337 338 338 339 340 339 337 336 335 337 338 339 340 340 340 339
359 360 358 358 359 360 361 361 361 361 360 359 360 360 360 360 360 359 358 358 357 357 358 359 356 355 354 351 351 355 359 358 355 356 359 360 364 366 363 363 362 361 364 365 364 361 359 360 358 357 356 356 356 352 346 346 346 344 343 342 341 341 342 342 342 342 342 340 338 338 338 338 339 339 340 337 337 337 338 337 338 339 340 340 339
359 360 360 359 359 360 361 361 361 360 361 360 361 360 360 361 361 360 360 358 356 356 357 359 358 355 356 355 353 353 358 360 358 356 359 360 361 364 363 364 363 362 362 363 363 361 361 361 358 358 357 357 356 352 348 347 345 344 343 343 341 341 341 341 341 343 343 342 340 338 339 340 339 339 339 337 337 339 339 338 338 338 339 340 340
360 360 360 360 360 362 362 362 362 361 361 362 361 361 361 361 362 362 361 358 356 356 356 357 359 358 358 359 356 355 357 361 360 358 359 361 361 361 362 363 363 362 362 362 360 360 360 360 359 358 357 356 355 352 349 347 346 345 344 343 343 344 341 341 342 341 342 343 342 340 339 339 340 340 340 338 338 338 338 338 338 337 337 338 339
361 360 360 360 361 363 363 364 364 363 362 363 362 362 361 362 362 362 361 359 357 358 357 357 360 360 360 361 360 359 358 359 359 359 359 360 361 361 360 360 361 362 361 360 358 359 359 359 359 358 358 357 355 352 349 348 346 346 346 344 344 346 344 344 342 340 341 342 342 341 339 340 340 340 340 340 339 338 338 338 338 336 337 338 338
Wind_Speed
16 18 21 23 22 21 19 19 20 20 21 21 22 22 22 22 21 21 21 22 22 22 20 19 18 18 18 18 18 17 17 18 18 17 17 16 15 15 15 15 14 14 13 12 12 12 11 11 11 11 11 12 12 12 12 12 12 12 12 12 11 11 10 10 11 13 14 15 15 14 13 12 12 11 11 11 11 11 11 10 9 9 10 11 12
20 21 22 24 24 22 20 20 20 20 21 21 22 22 22 21 21 21 22 22 22 21 20 19 18 18 18 17 17 17 17 17 17 17 16 16 15 15 15 14 14 14 13 13 12 12 11 11 11 11 11 12 12 12 12 12 12 12 12 12 12 11 11 11 12 13 14 15 15 13 13 12 12 11 11 11 11 11 10 8 7 10 11 12 12
22 23 22 24 24 21 21 20 20 20 21 21 21 21 21 21 21 22 22 22 22 20 19 18 18 17 17 16 16 16 17 17 16 16 15 15 14 14 14 14 14 13 13 12 12 11 12 11 11 11 11 11 11 12 12 12 12 11 11 12 12 12 12 11 12 14 14 14 14 13 12 12 12 12 11 11 11 11 10 8 8 11 12 12 13
23 23 24 24 24 22 22 21 20 20 20 21 21 21 21 20 21 22 22 22 21 20 18 18 17 17 16 16 16 16 16 16 15 15 15 14 14 14 14 14 13 13 12 12 11 11 12 12 11 11 11 10 11 11 12 12 11 11 11 12 12 12 13 12 13 14 13 13 12 12 12 12 12 12 11 11 11 11 11 11 11 12 13 13 14
24 23 24 25 25 23 22 22 20 20 21 21 21 21 20 21 22 22 21 21 20 19 18 18 17 16 16 16 16 15 15 15 14 14 14 14 14 14 13 13 13 12 12 11 11 11 11 11 11 11 11 10 11 11 11 12 11 10 10 11 12 13 13 13 14 13 11 12 10 10 11 11 12 12 11 11 12 12 12 12 12 12 13 14 15
24 23 23 25 25 24 21 21 20 20 21 21 20 20 20 21 22 21 21 20 19 19 18 17 16 16 15 15 15 15 15 14 14 14 13 13 13 13 13 12 12 12 12 11 11 11 11 11 11 11 11 10 11 10 10 11 10 10 10 11 12 13 13 13 13 10 8 10 8 8 10 11 12 12 11 11 12 12 12 12 11 12 14 14 15
24 23 23 23 24 24 21 21 21 21 21 20 20 20 21 22 21 20 20 20 19 18 17 16 16 15 15 15 14 14 14 13 13 13 12 12 12 12 12 12 11 11 11 11 11 11 11 11 11 12 12 11 10 10 10 9 9 9 9 10 12 13 13 12 12 8 7 9 9 10 12 11 11 11 11 11 12 11 12 12 11 12 14 14 14
23 23 23 22 22 24 23 22 21 21 20 20 20 20 22 21 20 20 19 19 18 17 16 16 15 15 14 14 14 14 13 13 12 12 12 11 11 11 11 10 10 10 11 11 10 11 11 11 11 12 12 11 10 9 9 9 9 9 9 9 11 13 13 13 11 8 9 9 10 12 13 13 12 11 11 10 11 11 11 11 11 11 12 14 15
23 22 23 22 23 26 24 22 21 21 20 20 20 21 22 20 19 19 18 17 17 16 16 15 14 14 14 14 13 13 13 12 12 11 11 11 11 10 10 10 10 10 10 10 10 10 11 11 11 11 11 11 10 9 9 9 9 9 9 9 11 13 15 13 9 8 10 9 9 12 13 14 13 11 11 10 10 10 10 11 10 11 11 11 13
23 22 23 23 25 26 24 22 21 20 19 20 21 21 21 19 19 18 17 17 15 15 15 14 14 14 13 13 13 13 12 12 12 11 11 11 10 10 10 10 10 10 10 9 9 10 10 11 11 11 11 10 10 9 8 8 8 9 9 9 11 13 15 12 8 9 10 10 10 10 12 13 12 11 11 10 10 9 9 10 9 10 11 10 12
23 22 23 23 26 26 24 23 21 20 19 20 21 21 20 19 19 17 17 16 15 15 14 14 14 14 13 13 13 12 12 12 12 12 11 10 10 10 10 10 11 10 10 10 10 10 10 10 11 10 10 9 9 9 8 8 8 9 9 9 12 13 14 9 8 9 9 10 10 10 11 11 11 10 11 10 10 9 8 9 10 11 12 11 11
27 22 22 25 26 26 25 23 21 20 20 21 21 21 20 19 18 17 16 15 14 14 13 13 13 13 12 12 12 12 12 12 12 11 11 10 10 10 10 11 11 11 11 11 10 10 10 9 10 10 9 9 9 9 8 9 9 9 9 9 11 13 14 10 8 9 9 10 10 9 10 10 10 9 10 10 11 11 10 9 10 11 10 10 10
29 24 24 27 27 27 25 22 21 20 21 21 21 20 19 18 17 16 15 14 14 13 12 12 12 12 11 11 11 11 12 11 11 10 10 10 10 10 11 11 11 11 11 11 11 10 10 9 9 9 9 9 9 9 9 8 9 8 8 9 10 12 14 11 7 8 10 9 8 9 11 10 10 9 9 11 11 11 11 10 11 10 9 9 9
28 27 26 27 28 28 24 22 21 21 22 21 20 19 18 18 16 15 14 14 13 12 12 11 11 11 11 10 10 11 11 10 10 10 10 10 10 11 11 11 11 11 11 11 11 10 10 10 10 9 9 9 9 9 9 8 8 8 7 8 9 11 11 9 7 8 10 9 8 9 10 9 9 8 9 10 11 11 11 11 12 11 10 9 8
27 27 26 27 28 26 23 22 22 22 21 20 19 18 18 17 15 15 14 13 12 11 11 11 10 10 9 9 9 9 9 9 10 10 10 11 11 11 11 11 10 10 10 10 10 10 10 10 10 10 9 9 9 9 9 8 8 8 8 8 9 10 9 8 6 8 9 10 9 9 9 8 8 8 9 9 10 10 10 11 11 11 11 11 9
25 27 26 26 27 25 23 22 22 21 21 19 19 18 17 16 15 14 13 13 11 11 10 10 10 9 8 8 8 8 8 9 9 10 10 10 10 11 11 10 10 10 10 10 9 10 10 10 10 9 9 9 9 8 8 8 8 8 8 8 10 10 10 8 7 7 9 10 9 10 10 8 8 8 8 9 9 9 10 11 10 10 10 10 10
24 26 26 26 25 24 23 22 21 21 20 19 18 17 16 15 14 14 13 12 11 11 10 10 9 8 8 7 7 7 7 7 8 8 8 9 9 10 11 10 10 10 9 10 10 10 10 10 10 9 9 9 8 8 7 8 8 8 9 8 10 11 10 8 7 8 9 9 9 10 10 7 7 8 8 9 9 9 10 10 10 9 10 10 10
23 24 25 25 24 23 22 22 21 20 19 18 17 16 16 15 14 13 12 12 11 10 10 9 9 8 7 7 7 6 6 6 6 7 7 8 8 8 9 9 9 9 9 9 9 10 10 10 9 9 9 9 8 7 7 8 8 9 9 9 9 11 10 9 8 9 9 10 10 10 9 7 8 8 8 9 8 8 9 10 9 8 9 9 9
22 22 23 23 23 22 22 21 20 19 19 18 17 16 16 15 14 13 12 12 11 10 9 9 8 8 7 7 6 6 6 5 5 5 5 7 8 6 7 8 7 7 7 8 8 8 8 8 8 8 8 9 8 6 6 7 8 10 10 10 10 10 9 10 8 7 9 10 11 10 8 8 10 10 10 10 9 8 9 9 9 8 8 8 9
21 21 22 22 22 22 21 20 20 19 18 17 17 17 16 15 14 13 12 12 11 10 9 9 8 8 7 7 6 6 5 4 4 4 3 5 6 4 5 6 6 6 6 6 7 7 7 7 7 7 7 8 8 7 7 6 8 10 11 11 10 9 8 9 8 5 8 11 11 9 8 9 10 11 10 9 10 10 9 8 9 8 7 8 8
20 21 21 21 21 21 21 20 20 19 18 17 17 17 16 16 14 13 12 12 11 10 9 8 8 8 7 7 6 6 6 5 4 4 2 4 3 2 3 4 4 4 4 4 5 5 6 6 6 7 7 5 6 7 6 7 7 9 11 10 9 10 8 8 7 6 7 10 10 7 7 8 9 11 10 9 10 10 9 8 8 8 7 8 8
20 20 20 21 21 22 21 21 20 20 19 18 17 17 17 16 14 13 13 12 11 10 9 9 8 8 7 7 6 7 7 5 5 4 3 3 1 1 2 2 2 2 3 4 4 5 6 7 7 7 7 4 3 3 4 6 7 8 10 8 8 8 6 6 6 6 7 9 8 6 7 8 8 9 10 9 9 8 8 7 7 7 7 8 7
21 20 21 21 21 21 21 21 21 21 19 18 17 17 18 16 14 14 13 12 11 10 10 10 9 9 8 7 6 6 6 4 5 4 3 4 1 2 1 1 2 2 3 4 4 6 6 7 6 4 5 3 2 1 4 6 5 6 9 7 6 6 5 5 6 6 7 8 7 6 7 8 9 8 8 8 8 8 7 7 7 7 7 7 7
21 20 21 22 21 21 21 21 22 21 19 18 17 17 17 16 14 14 13 12 12 11 11 10 9 9 8 8 7 5 5 4 5 4 3 3 1 2 2 2 2 3 4 3 4 4 4 4 3 2 3 3 2 2 3 4 4 4 6 6 6 6 6 5 6 8 9 8 6 5 6 8 8 8 8 7 8 8 8 7 6 6 7 7 6
22 21 21 22 21 21 22 22 22 21 19 18 17 17 17 16 15 14 13 12 12 11 11 10 10 9 9 8 6 5 6 5 5 4 3 3 3 3 2 3 3 4 3 1 2 2 2 3 2 4 4 3 3 2 1 3 4 4 5 6 6 5 5 6 8 7 8 8 5 5 6 7 8 8 7 7 8 8 8 7 7 6 6 7 6
21 21 21 22 22 22 22 22 22 22 19 17 17 17 17 16 15 14 13 12 12 11 11 10 10 10 9 8 6 6 6 5 5 5 4 3 4 4 3 4 3 5 4 1 3 2 2 4 2 4 4 3 4 4 3 5 5 5 5 5 5 5 5 6 8 6 7 7 6 5 6 7 8 7 7 7 7 7 7 7 7 7 6 7 7
20 20 21 22 23 22 22 22 22 22 20 18 16 16 17 16 14 14 13 12 12 11 11 10 10 10 9 7 7 7 6 5 5 5 4 3 3 3 2 4 3 4 5 3 3 1 2 4 2 2 3 4 4 4 3 4 4 4 5 4 4 6 5 5 7 8 8 7 6 6 6 6 7 7 7 7 7 6 7 6 6 7 6 7 7
20 20 21 22 23 23 23 22 22 22 21 18 17 16 16 15 14 14 13 12 11 11 10 10 9 10 9 7 7 6 6 6 5 5 4 3 3 2 1 2 2 3 3 3 2 1 1 2 2 2 2 4 4 4 3 2 2 2 4 4 4 6 5 5 5 7 10 9 6 5 5 6 6 7 7 7 7 7 6 6 6 6 6 6 7
21 20 20 21 23 23 24 23 22 22 21 19 17 16 16 15 14 14 13 12 12 11 10 10 9 10 10 8 7 6 6 5 5 5 4 3 2 2 2 2 2 2 3 3 3 1 2 2 2 2 2 3 3 3 3 1 0 1 3 2 3 6 5 4 5 4 6 10 7 5 5 5 5 6 6 7 7 7 7 6 6 6 6 6 6
22 22 21 21 22 23 24 23 23 22 21 19 18 16 16 15 14 13 13 12 12 10 10 10 9 10 10 9 8 6 5 5 5 5 4 3 2 2 2 1 2 1 2 2 3 2 1 3 2 1 2 3 3 3 2 0 1 1 3 2 1 5 5 3 5 4 4 10 9 5 5 5 5 6 6 6 6 6 7 7 7 7 7 7 6
22 23 22 21 22 23 23 23 23 22 22 20 18 17 16 16 14 13 13 13 12 10 10 10 10 9 9 10 9 7 5 3 4 5 4 3 3 3 2 2 2 2 1 2 1 2 1 3 1 1 2 3 3 3 2 1 1 1 3 2 2 3 5 2 3 6 5 9 10 6 5 6 6 6 6 6 6 6 7 7 7 7 7 7 7
22 23 22 21 22 23 24 24 23 22 22 20 18 17 16 16 14 13 12 13 12 11 11 10 9 9 9 10 9 8 7 3 3 4 4 3 3 3 3 2 1 2 1 0 1 1 1 1 1 1 1 2 3 3 2 1 1 1 2 2 2 4 4 2 1 2 4 7 9 8 6 6 7 7 6 6 6 6 7 7 7 7 7 7 7
23 23 22 23 24 23 23 24 23 23 22 20 19 17 16 15 15 14 13 13 12 12 11 10 10 9 9 9 9 9 8 5 4 5 4 4 4 3 3 3 3 2 2 1 1 1 3 2 1 1 0 2 3 3 2 2 2 1 2 1 1 3 2 3 2 2 3 5 9 9 6 6 6 8 7 6 6 6 6 6 7 7 7 6 6
22 23 23 23 24 24 23 23 23 23 22 20 19 17 16 15 15 14 13 13 12 12 11 10 10 10 9 10 9 9 9 7 5 6 6 5 4 4 4 4 3 3 2 2 3 2 3 1 1 1 0 1 2 4 3 1 1 1 1 1 0 1 1 2 2 2 2 3 7 8 6 6 6 6 7 7 6 5 5 5 6 7 6 6 6
22 23 24 23 24 24 24 23 23 23 22 21 19 17 16 15 15 14 14 13 12 12 12 11 11 10 10 11 10 10 9 8 7 7 6 6 5 5 5 4 3 3 2 3 3 2 1 1 1 1 1 1 2 3 2 0 0 1 1 1 1 0 2 4 2 1 3 2 6 7 5 5 6 5 6 7 7 5 4 3 4 5 5 5 6
23 23 24 24 24 24 24 24 24 24 22 20 18 17 16 15 15 14 14 13 12 12 12 12 12 12 11 11 12 11 10 10 8 8 7 6 6 5 5 4 3 4 3 2 2 3 2 2 1 1 1 2 3 3 1 1 0 1 2 1 1 0 3 5 2 1 4 3 6 7 4 5 6 6 7 8 7 5 5 5 4 4 4 3 4
24 24 25 25 24 24 24 23 25 24 22 20 18 17 16 14 14 14 13 13 13 12 12 12 12 12 12 11 13 12 11 11 10 9 8 7 6 6 6 6 5 4 3 2 3 3 2 1 1 2 2 2 3 2 1 1 0 1 2 2 2 0 2 4 1 2 4 3 4 6 5 5 6 6 7 8 6 5 6 6 5 5 4 3 3
25 25 25 26 25 25 24 23 24 24 22 21 19 17 16 14 14 14 13 13 13 13 13 12 12 12 12 12 13 13 12 11 11 9 9 8 7 7 6 5 5 4 3 4 4 3 2 2 1 2 1 2 3 2 1 1 1 1 2 2 0 1 2 3 1 1 3 3 3 5 6 4 4 5 6 8 5 4 6 6 5 5 5 4 2
25 25 26 26 25 24 24 23 23 24 22 21 19 18 17 15 14 14 14 13 13 13 13 13 13 12 12 12 13 13 12 12 12 10 9 9 8 8 6 4 4 4 5 5 5 4 3 3 2 3 2 2 3 2 1 1 1 1 3 4 1 2 1 2 2 3 3 4 4 4 6 5 4 6 5 6 6 5 6 5 5 5 4 4 3
25 26 26 26 26 24 24 23 24 25 23 21 20 19 18 17 15 15 15 15 14 14 14 13 13 13 13 13 14 13 13 12 12 11 10 9 9 8 6 5 5 5 5 5 5 3 3 3 2 2 2 2 2 1 1 1 2 3 2 4 4 1 1 2 2 4 5 4 4 2 5 6 4 5 5 5 6 6 6 5 5 5 4 4 4
26 27 27 27 27 26 25 25 24 25 24 23 22 21 20 19 18 17 17 16 16 15 15 14 14 14 13 14 14 14 13 13 13 12 11 11 10 8 6 6 6 6 5 5 5 3 2 2 2 2 3 3 2 2 2 1 2 4 3 3 5 3 4 4 4 5 6 6 6 3 4 6 5 5 6 6 6 7 7 6 5 5 5 4 5
27 28 29 28 28 26 26 25 25 25 25 24 24 23 22 20 19 18 17 17 17 16 16 15 15 14 14 15 15 14 14 14 13 13 12 11 11 9 7 7 7 7 6 5 5 4 4 3 3 3 3 4 3 2 3 3 3 3 2 3 6 4 3 3 5 5 7 7 8 5 4 5 6 5 6 7 7 6 7 6 6 6 5 4 4
28 29 29 29 28 27 26 26 25 25 26 25 25 23 22 21 19 18 18 17 17 17 15 15 15 15 15 15 15 15 15 15 14 14 13 12 12 10 9 8 7 7 6 6 6 5 5 4 5 5 4 4 4 3 3 4 3 2 3 1 4 5 3 3 6 6 7 7 7 8 5 3 6 3 3 7 8 6 6 6 7 6 5 5 4
29 29 29 29 29 28 28 27 26 25 26 26 25 23 21 21 19 17 17 16 15 16 15 15 15 15 16 16 16 16 16 15 15 15 14 13 12 11 10 9 8 8 7 6 6 6 6 5 5 5 4 4 4 4 3 4 3 2 2 1 1 3 3 5 6 5 7 8 6 8 8 5 7 5 3 7 9 6 7 6 6 6 5 5 5
30 30 31 31 29 29 29 28 27 26 25 26 25 23 21 20 19 17 17 16 14 15 16 16 16 17 17 17 17 17 17 16 16 15 15 14 13 12 11 9 8 8 8 7 7 6 6 5 6 6 5 4 2 3 4 3 3 2 1 1 1 2 2 7 8 5 6 7 7 7 10 7 8 5 0 7 8 5 8 7 5 6 5 5 5
30 31 31 31 30 30 30 29 28 27 25 26 26 23 21 21 20 18 17 17 16 16 17 17 17 17 17 17 17 17 18 17 16 16 16 15 14 13 13 11 9 9 8 8 7 6 6 6 6 6 5 4 2 2 3 3 2 2 2 1 2 2 2 5 6 2 6 3 6 7 8 7 7 6 3 5 6 4 6 7 5 6 5 5 6
30 31 31 31 31 30 31 31 28 27 26 26 27 25 22 22 22 20 19 18 17 16 16 16 16 17 16 17 17 17 18 17 17 17 17 16 14 13 14 12 11 10 9 8 8 7 7 6 7 6 5 4 4 3 4 5 5 4 4 4 5 2 2 2 3 3 3 3 3 6 7 7 7 6 6 7 9 7 5 5 5 5 5 5 5
30 30 30 31 32 32 32 32 29 27 26 26 28 27 23 23 23 22 20 19 18 16 16 16 16 15 16 16 17 17 17 18 17 17 17 17 15 13 14 13 12 11 9 9 9 8 7 6 6 6 5 5 5 4 5 6 8 6 6 6 6 4 1 3 2 2 3 3 3 5 5 8 8 7 7 6 7 10 8 5 4 4 5 5 5
31 31 31 31 32 32 32 32 30 28 27 27 29 28 25 23 24 23 21 20 18 16 16 16 16 15 16 16 16 16 17 18 18 18 18 18 17 15 14 14 13 12 11 10 9 8 8 7 7 7 7 6 6 5 6 6 6 7 8 7 7 6 6 5 3 2 3 3 4 4 5 6 6 7 7 6 6 12 10 7 5 4 4 4 4
31 31 30 30 30 31 31 32 31 29 29 29 29 30 27 25 24 24 23 21 19 17 16 17 17 17 16 17 17 16 17 17 18 18 18 18 18 17 16 15 14 13 12 11 10 9 9 9 9 8 7 7 6 7 7 7 6 5 9 9 8 8 8 6 6 7 4 2 1 4 7 8 6 7 7 6 6 7 8 10 7 5 5 4 3
30 31 30 29 30 31 31 33 32 30 29 30 30 31 29 27 25 24 24 22 20 19 18 17 18 18 18 18 18 17 17 17 17 18 18 18 18 18 17 16 15 14 13 12 11 10 10 10 9 8 8 8 8 8 8 9 8 6 8 10 9 8 7 6 7 7 5 4 3 4 6 6 4 6 7 5 6 5 4 7 5 5 7 5 4
Wind_Direction
150 150 146 146 145 147 139 131 128 125 124 125 126 127 126 124 121 121 121 119 114 108 105 105 102 99 96 93 91 90 90 89 89 89 89 90 92 93 92 92 91 90 89 88 86 85 85 86 86 85 85 85 84 82 79 77 75 76 76 74 74 79 86 91 96 103 104 101 97 94 94 93 91 91 91 91 90 82 72 75 89 101 106 101 100
151 150 148 148 149 148 138 133 129 127 127 126 128 128 126 123 121 122 121 116 110 107 106 105 103 99 95 93 92 91 91 89 89 89 89 90 90 92 91 91 91 90 89 87 85 85 86 86 86 86 85 85 86 85 82 79 77 77 77 77 75 78 87 93 98 102 102 99 96 94 93 91 89 89 89 90 89 80 68 73 97 100 99 102 105
146 148 149 148 148 146 137 133 131 129 129 128 128 127 126 123 123 123 119 112 109 109 108 106 102 98 95 93 93 91 90 89 89 89 89 90 90 91 90 88 88 89 88 87 87 87 87 85 83 85 86 86 87 88 87 82 80 79 78 79 76 74 80 89 96 96 96 94 94 94 92 91 89 86 85 85 85 81 76 86 97 96 99 105 107
143 146 147 147 146 144 137 134 134 133 131 130 128 127 126 124 125 123 116 112 111 110 108 105 101 98 96 94 92 90 89 88 89 89 89 90 91 90 89 87 87 87 87 87 85 83 85 84 82 85 90 90 90 92 92 89 85 81 79 80 78 75 77 89 95 96 97 96 101 104 97 92 91 87 84 82 83 85 81 83 89 94 99 102 103
141 143 145 146 145 144 138 136 136 135 133 131 130 128 126 127 126 121 116 114 113 111 108 104 101 99 97 94 92 90 89 89 89 88 89 89 89 88 87 87 86 86 86 87 82 80 81 81 80 81 86 88 89 91 93 94 92 85 81 80 81 78 76 87 95 96 99 101 109 106 98 98 95 88 84 82 83 85 83 81 84 92 97 99 101
139 140 142 144 145 144 139 138 136 136 135 132 131 129 129 130 126 120 118 116 114 112 108 104 101 99 96 94 91 90 90 89 88 86 86 85 85 85 85 85 84 85 85 84 83 81 80 80 79 78 82 84 84 86 92 96 96 91 84 80 82 81 80 88 96 93 94 100 90 82 97 99 93 91 88 86 86 86 87 87 80 83 92 97 101
137 139 141 143 144 143 140 138 136 136 135 134 133 131 133 132 125 121 120 117 115 113 108 104 101 100 97 94 92 90 90 88 86 84 83 82 81 82 82 82 82 83 83 81 81 82 81 80 79 79 83 85 86 86 89 94 95 94 89 82 80 83 86 93 95 85 84 91 71 79 100 92 87 90 88 87 86 85 86 90 84 80 88 95 100
137 139 141 141 144 144 141 138 136 137 136 136 134 133 135 130 125 123 122 118 116 113 108 105 103 100 98 95 92 89 88 87 85 83 82 80 79 79 79 81 79 80 81 80 80 80 80 79 79 80 82 85 89 87 87 92 95 95 91 85 81 83 89 94 93 84 84 90 81 91 101 93 92 90 87 87 87 88 85 86 86 84 85 93 100
137 140 141 139 143 145 141 138 138 139 138 137 135 136 135 129 127 125 123 120 118 115 110 107 104 102 98 96 93 90 88 86 85 84 82 79 79 79 79 79 78 78 78 80 79 79 78 77 78 78 81 83 86 86 84 86 89 90 90 88 82 82 89 89 87 85 86 91 87 92 98 93 91 90 89 86 87 90 89 87 87 89 88 93 101
136 139 141 138 144 146 140 139 139 139 139 139 139 138 134 129 128 127 125 124 121 116 112 110 106 103 100 97 94 91 89 87 86 84 82 81 81 80 81 79 78 77 77 78 77 77 77 76 77 77 78 80 82 84 84 83 83 86 88 89 85 86 92 88 80 84 85 89 88 91 99 94 90 93 92 86 86 89 95 100 97 97 98 98 99
139 138 138 140 148 147 142 140 139 140 141 141 141 137 133 131 130 128 127 127 124 118 115 113 109 105 101 98 95 91 89 87 86 84 84 83 83 82 81 80 78 77 77 77 75 76 75 77 78 77 78 79 80 82 86 87 86 87 88 91 91 91 91 86 84 88 88 94 98 95 93 94 95 97 94 88 87 92 101 104 99 98 102 103 103
138 137 136 143 150 148 143 141 141 142 144 143 140 137 134 133 131 130 130 128 125 121 120 117 111 107 102 99 95 91 88 87 86 85 85 83 83 82 81 80 78 77 77 76 75 75 76 78 79 79 78 78 80 80 84 86 87 88 88 92 95 96 91 88 93 95 98 101 104 101 95 98 102 102 96 91 88 89 92 96 97 98 103 105 109
133 132 135 141 147 147 144 142 143 144 145 144 140 137 136 134 133 132 132 130 128 126 125 122 115 110 104 101 96 92 89 87 87 85 84 82 81 81 81 80 78 78 77 76 76 76 77 78 80 80 79 78 78 78 82 84 84 86 90 95 100 103 95 92 100 101 101 99 96 100 101 105 108 107 99 93 92 89 88 90 94 96 100 103 110
131 131 135 138 144 147 145 143 144 146 147 145 141 139 136 135 136 136 135 133 132 130 130 126 120 114 108 103 99 95 91 89 87 86 84 82 80 79 78 76 77 77 76 77 77 77 77 78 80 80 78 79 78 77 81 83 83 83 88 98 104 105 97 93 96 94 96 96 92 94 98 105 110 109 104 99 97 94 91 88 88 89 89 95 107
133 134 136 139 144 146 145 145 146 148 149 146 142 139 138 138 140 140 138 138 135 134 134 129 124 119 113 108 103 98 93 91 88 87 84 80 77 75 73 71 71 72 73 74 76 77 77 77 79 81 80 81 80 78 81 83 82 80 85 98 102 101 98 99 96 88 92 97 99 101 102 108 114 111 109 106 104 101 97 93 90 88 85 86 95
136 136 137 140 143 145 145 146 148 149 149 146 143 141 141 143 145 144 142 142 139 138 136 131 128 124 121 114 107 102 97 93 89 88 84 80 77 74 70 68 69 67 68 70 73 76 78 80 80 81 80 81 83 81 82 85 84 82 87 98 103 99 91 92 94 88 87 91 95 102 106 108 115 117 116 113 112 109 104 101 96 91 87 85 86
138 138 139 141 143 145 146 147 149 150 148 147 144 144 146 148 149 147 146 145 144 141 138 133 131 129 130 125 114 107 103 97 92 90 85 82 79 78 74 68 68 67 68 71 74 76 79 82 81 82 79 79 82 83 85 88 90 88 90 99 107 101 89 85 85 84 87 92 90 94 101 103 115 121 121 120 118 114 109 104 97 92 90 89 87
140 140 142 144 145 147 148 148 149 148 147 147 146 149 151 153 152 150 151 150 149 146 142 139 135 136 137 134 126 119 113 106 100 93 86 80 69 72 79 73 70 69 70 75 78 78 79 79 78 80 78 78 80 84 86 88 92 92 91 97 106 100 92 91 85 85 89 94 95 96 102 104 115 121 121 122 119 116 112 104 98 93 92 92 91
143 143 145 147 149 150 149 149 149 149 149 149 150 154 156 156 157 155 157 156 155 151 148 146 141 145 143 141 139 132 124 115 107 97 90 86 74 68 83 83 76 72 71 75 79 75 73 72 71 73 73 77 78 78 80 86 93 93 93 94 100 97 92 93 87 89 91 92 97 100 107 109 113 117 121 124 120 118 116 112 104 98 96 95 94
146 147 149 150 152 151 151 151 152 154 153 153 154 157 160 160 162 161 162 161 160 158 156 155 152 154 150 147 145 137 136 126 109 103 93 98 99 91 86 88 84 79 77 75 75 69 64 63 61 62 66 74 79 79 79 89 96 97 99 97 99 93 88 92 92 103 97 95 98 99 108 113 116 118 119 124 123 122 122 121 115 109 107 102 99
149 152 153 153 155 154 155 155 156 158 157 157 156 159 164 164 166 165 167 167 165 167 165 163 163 162 160 155 151 157 168 150 130 140 117 90 94 92 83 86 86 77 77 77 69 59 50 48 46 49 53 55 70 75 76 88 98 103 104 98 98 94 92 100 101 108 102 99 101 103 108 110 118 121 118 122 126 128 129 127 123 122 119 111 106
155 156 158 158 158 158 159 159 160 162 161 160 159 162 167 166 168 168 170 173 172 172 171 172 174 175 174 169 170 180 182 160 143 160 146 111 70 46 86 77 79 66 63 70 58 48 41 38 36 47 52 24 34 72 86 87 91 99 100 94 93 98 104 114 111 102 101 106 107 108 113 111 118 125 122 124 127 131 137 135 133 134 127 120 115
160 159 161 163 161 162 163 163 162 164 164 164 164 164 167 168 170 171 172 176 178 178 180 182 184 187 184 188 196 183 172 161 158 171 162 150 101 33 85 77 78 68 64 59 46 47 47 44 37 56 65 25 1 107 118 105 109 105 103 102 94 102 112 126 126 107 103 112 115 114 121 122 124 129 126 125 129 133 140 140 140 140 134 129 124
163 161 163 165 164 165 166 167 165 166 168 166 168 167 168 172 174 176 177 180 183 185 189 189 189 193 190 198 204 176 173 185 180 180 168 175 164 65 77 90 95 91 86 67 63 68 68 64 52 65 54 23 352 258 170 124 135 113 95 96 91 106 116 120 119 109 109 113 118 125 130 131 129 133 135 135 138 140 140 141 142 141 141 137 129
164 164 166 167 166 167 168 169 168 169 171 169 172 171 171 176 178 181 183 184 187 189 192 192 191 195 196 201 195 177 194 191 177 181 183 201 176 151 132 122 118 115 115 55 98 138 115 86 49 35 31 22 11 328 209 85 83 79 74 84 87 105 117 112 109 106 116 114 113 132 138 137 136 137 142 146 149 151 148 147 147 143 148 147 141
167 167 167 169 170 170 170 170 171 172 174 174 175 172 174 180 182 183 186 187 189 191 192 192 191 194 200 202 187 182 203 190 174 190 199 203 178 182 175 146 133 132 149 130 119 167 82 82 26 25 38 41 32 22 51 63 62 62 65 76 85 94 96 108 113 109 116 119 116 131 142 140 146 149 148 151 152 154 155 157 155 149 153 157 162
170 169 169 171 172 172 172 171 173 175 176 178 177 174 177 183 184 184 189 189 189 191 192 192 188 192 200 203 193 189 199 193 181 192 203 202 188 194 171 148 150 147 157 137 130 179 55 77 41 33 35 24 23 22 41 58 60 61 68 71 80 91 90 96 111 116 118 123 125 134 145 138 147 156 155 157 154 155 160 168 165 157 158 163 171
174 171 170 173 175 174 174 174 174 176 178 180 180 179 181 185 184 185 190 189 188 191 191 189 184 188 197 201 204 200 197 193 184 190 203 204 192 188 172 151 150 143 141 120 131 193 73 83 52 46 26 19 22 16 24 50 54 64 77 79 90 98 100 95 101 122 126 125 122 129 142 136 138 151 160 165 161 160 164 172 175 171 171 172 172
177 174 171 174 176 176 175 176 176 178 180 181 183 183 183 186 184 185 189 187 189 192 187 186 184 188 194 197 205 207 201 193 185 190 195 195 188 191 201 150 119 114 160 136 123 146 88 96 70 35 16 30 35 15 21 46 355 80 87 78 104 102 105 112 101 104 124 130 126 119 133 138 138 145 159 167 165 167 172 175 178 179 180 183 180
180 177 174 176 177 177 177 178 177 179 181 182 184 185 184 187 185 184 187 185 192 192 185 188 187 189 191 192 200 211 213 199 189 190 188 189 191 196 203 159 137 172 208 112 107 179 66 81 99 41 10 20 33 24 29 19 313 115 94 57 83 95 101 125 128 125 135 139 134 119 120 129 139 146 157 168 169 169 175 178 181 184 182 190 193
180 179 178 177 177 179 178 179 178 178 182 183 185 185 184 187 185 185 186 186 193 191 188 194 191 191 189 186 194 207 217 208 185 187 191 194 194 197 200 193 171 170 202 28 113 179 82 80 111 26 13 7 7 24 34 352 331 119 93 58 12 61 95 117 152 147 122 126 135 132 123 118 126 139 149 160 166 170 178 181 184 186 183 192 201
180 182 179 176 179 181 179 179 179 179 182 183 183 184 184 186 186 186 188 187 190 191 193 196 192 191 184 180 191 198 208 216 178 185 197 196 196 198 199 202 197 179 169 50 178 169 164 145 120 51 24 353 328 18 38 314 291 152 103 96 26 43 90 119 152 140 105 119 132 127 129 128 116 121 133 145 157 167 178 184 186 189 188 193 199
181 183 179 176 180 182 180 180 180 181 183 184 183 184 185 185 187 188 188 186 188 193 195 195 193 191 184 183 190 192 199 209 192 195 205 201 199 200 204 204 208 216 177 164 220 218 229 222 133 179 25 347 330 11 1 297 284 255 104 125 90 65 125 159 127 117 122 130 124 117 128 143 124 112 116 127 144 159 172 183 185 187 193 193 193
179 182 182 178 179 180 180 181 181 182 184 186 184 185 187 186 188 190 188 186 189 194 195 194 192 190 189 188 190 191 195 201 198 202 208 209 204 199 211 216 207 213 205 212 241 231 217 220 163 199 13 346 346 4 340 314 282 282 87 339 29 67 307 116 101 100 122 118 110 112 125 144 145 128 117 116 119 131 152 174 181 182 192 192 191
179 181 183 181 181 179 180 182 182 183 185 187 185 185 188 187 189 191 188 188 191 194 195 194 191 192 193 190 192 194 194 198 200 202 209 214 211 206 213 220 206 212 227 220 239 255 246 274 270 253 308 319 339 339 315 228 285 31 99 335 56 53 46 89 130 165 135 124 106 109 118 137 148 144 134 125 111 98 107 135 162 176 188 188 187
181 182 181 182 184 181 181 181 180 182 184 186 185 185 188 190 191 192 189 190 194 196 198 197 194 195 196 192 192 194 195 198 200 203 210 215 218 214 207 207 210 226 235 212 238 262 266 290 303 312 305 317 326 314 299 264 294 111 157 185 126 202 79 101 185 153 101 85 99 112 125 128 129 140 147 139 128 106 89 95 110 141 161 169 175
182 182 182 183 184 183 183 181 179 182 184 184 185 185 188 190 192 193 191 192 197 198 199 201 198 197 198 195 191 192 196 196 200 205 210 217 221 221 215 208 210 229 234 225 247 252 257 284 291 305 306 293 299 317 334 316 326 154 181 165 148 249 88 94 31 64 90 65 81 112 124 122 123 134 140 130 127 119 98 91 96 106 119 127 146
183 183 183 183 184 183 184 184 181 181 183 183 185 185 186 189 190 193 193 194 201 201 199 201 202 199 197 196 190 191 195 195 200 204 210 219 222 226 228 209 198 218 228 232 248 251 258 263 250 264 272 291 298 307 308 348 50 187 164 150 208 348 103 114 69 90 135 122 118 130 118 110 110 105 115 112 105 117 110 98 105 106 100 106 119
184 183 183 183 185 184 184 186 183 183 183 181 184 185 187 191 192 193 194 197 203 204 202 201 203 202 196 193 189 189 194 196 199 203 209 218 224 227 229 217 208 221 229 234 242 234 229 238 247 246 235 272 288 293 303 74 137 171 142 141 121 354 59 102 167 170 136 131 156 159 122 106 101 92 97 107 99 101 96 84 105 119 104 94 98
183 182 182 183 185 185 184 187 186 185 183 180 184 187 189 193 193 195 195 198 202 204 206 203 203 204 197 192 190 191 194 196 199 202 208 214 223 226 218 219 222 225 234 245 251 235 209 220 243 232 227 254 259 252 237 164 144 110 114 152 135 194 222 64 219 175 136 145 163 167 121 103 83 82 75 81 94 94 93 91 92 104 111 99 94
183 181 182 183 186 186 185 187 186 185 185 183 185 188 190 192 194 197 197 199 202 203 205 205 204 203 198 193 193 195 195 196 198 200 206 211 217 221 213 213 221 227 232 243 256 252 223 227 244 232 231 245 231 208 192 157 163 138 148 172 142 190 180 139 240 198 152 161 152 155 143 119 111 114 94 79 90 95 98 105 93 83 90 92 99
182 181 183 183 185 186 186 186 184 184 186 185 185 189 192 192 194 198 199 198 200 203 204 204 205 202 197 195 195 197 197 198 199 200 204 208 211 213 210 209 219 228 225 232 243 241 234 231 237 234 226 232 224 215 183 171 219 170 139 171 155 174 152 149 235 203 163 167 155 159 166 124 110 118 121 112 107 101 96 97 98 98 92 87 93
181 182 183 183 184 186 187 186 185 185 187 186 187 190 193 193 195 197 200 200 198 202 205 204 205 203 198 198 198 199 199 199 200 201 203 206 207 205 207 209 214 222 220 224 229 225 230 228 232 235 226 224 205 195 194 203 235 97 93 232 174 158 141 182 227 208 179 176 172 163 154 117 107 126 180 129 117 103 98 92 93 99 101 99 95
181 182 182 183 185 186 188 188 188 187 187 188 188 190 192 193 196 198 202 204 200 200 205 205 204 205 202 200 201 201 200 201 201 202 205 207 206 203 208 211 210 215 215 216 221 222 227 224 231 233 228 239 205 167 177 212 231 123 143 237 207 182 162 169 189 210 190 166 182 168 148 149 137 163 246 112 113 119 114 104 93 92 89 96 101
183 183 183 184 185 186 187 188 189 189 188 188 188 189 190 191 195 198 202 206 203 199 203 205 202 203 204 201 202 204 201 203 203 204 206 207 207 206 208 210 208 211 212 216 224 225 227 225 229 228 224 248 234 153 151 193 228 242 246 61 138 249 163 160 167 214 225 170 184 169 138 152 147 145 24 94 111 135 119 108 101 100 91 95 101
185 185 184 184 185 185 186 187 189 191 190 189 188 187 189 190 193 196 198 200 202 200 201 204 202 202 206 203 202 204 203 204 205 205 207 208 207 208 209 210 211 212 210 217 226 224 227 227 226 225 221 229 229 190 170 173 190 227 272 319 280 319 62 162 161 206 272 229 187 175 141 155 158 146 167 133 136 142 119 118 118 112 105 104 105
185 185 185 185 185 184 185 186 187 190 191 190 188 188 190 191 193 196 197 198 200 202 201 204 206 203 206 206 202 203 204 206 207 206 206 207 206 206 211 214 216 217 212 214 220 222 225 222 219 220 211 200 196 210 213 175 161 193 221 228 233 248 57 200 165 136 244 279 222 200 165 167 175 163 181 184 168 153 129 122 121 116 111 110 115
184 184 185 186 185 184 184 185 186 188 190 190 190 190 192 193 195 197 199 201 202 202 201 204 208 207 207 208 205 202 203 207 208 207 206 207 208 207 210 213 217 221 218 216 220 221 221 210 207 208 200 197 184 192 228 189 160 179 202 208 214 209 197 224 205 132 186 202 229 242 195 176 188 181 186 216 181 150 143 138 132 138 124 116 123
183 184 186 186 185 184 183 184 186 187 188 189 190 192 194 195 197 198 200 203 205 205 203 204 207 208 206 208 208 204 202 206 209 208 207 206 209 209 210 213 216 219 220 221 222 218 216 208 204 205 197 196 182 180 227 222 189 182 181 197 211 196 198 208 200 219 238 212 187 212 202 184 196 188 191 227 173 147 157 162 154 163 143 131 143
184 184 185 184 183 183 183 184 185 187 187 189 190 192 195 197 200 201 201 202 203 205 206 205 205 206 205 205 207 205 202 205 208 209 208 207 208 210 211 214 216 218 219 222 224 217 214 212 208 210 201 193 189 188 207 221 227 205 169 184 212 198 195 206 193 192 217 272 233 204 189 184 196 190 191 217 192 166 165 155 156 185 173 160 170
183 182 184 184 183 183 183 184 185 186 187 188 190 192 194 198 202 202 202 201 200 202 205 204 203 203 205 204 204 205 205 207 208 208 210 209 209 209 211 215 215 218 219 219 223 218 214 214 208 209 203 192 192 197 205 209 217 219 179 178 203 207 195 203 210 206 193 180 214 236 198 179 192 183 181 208 214 217 181 153 177 206 175 173 198